Terug naar catalogus

ONEWEB-0152

ActiefCommunicatiePO
NORAD 48043·PAYLOAD·🇬🇧 United Kingdom

Gelanceerd Mar 25, 2021 vanaf Vostochny Cosmodrome

Loading…

Volgende Passages (komende 24 uur)

TLE

VersSource: CelesTrak SupGP

Epoch: Sep 14, 2026, 15:25 UTC

1 48043C 21025B   26257.64288611 -.00000765  00000+0 -20979-2 0  2572
2 48043  87.8924 302.4299 0002039  99.5266   0.5004 13.13471326    10

Volg ONEWEB-0152 in realtime met AllMySat

Download on the App Store